[[{"header":{"parameterUnit":"m.s-1","parameterCategory":1,"la1":30.2991,"la2":30.254,"lo1":-89.0895,"lo2":-89.0444,"dy":0.0017,"dx":0.0017,"nx":28,"ny":28,"refTime":"2023-08-08T03:00:00:Z","depth":0,"parameterNumber":2,"parameterNumberName":"U-component_of_WINDS"},"data":[0,0,0,0,0,0,0,0,0,0,0,0,0,0,0,0,0,0,0,0,0,0,0,0,0,0,0,0,0,0,0,0,0,0,0,0,0,0,0,0,0,0,0,0,0,0,0,0,0,0,0,0,0,0,0,0,0,0,4.9656,4.9657,0,4.9724,4.9725,4.9726,4.9642,4.9639,4.9636,4.9633,4.9701,4.9706,4.9711,0,0,0,0,0,0,0,0,0,0,0,0,0,4.945,4.9454,4.9656,4.9657,4.9657,4.9724,4.9725,4.9726,4.9643,4.9639,4.9635,4.9632,4.97,4.9705,4.9711,0,0,0,0,0,0,0,0,0,0,0,0,0,4.9531,4.9455,4.9656,4.9624,4.9622,4.9724,4.9725,4.9726,4.9643,4.9639,4.9634,4.963,4.9698,4.9705,4.9712,4.9848,0,0,4.9733,4.9736,0,0,0,0,0,0,0,0,4.9526,4.9538,4.9628,4.9626,4.9624,4.967,4.9677,4.9767,4.9645,4.9635,4.9633,4.9628,4.9695,4.9702,4.9724,4.9851,4.9854,4.9734,4.9738,4.9741,4.9743,0,0,0,0,0,0,0,4.9521,4.9535,4.9683,4.9629,4.9627,4.9605,4.9612,4.9694,4.969,4.9636,4.963,4.9639,4.9693,4.9718,4.9725,4.9855,4.9734,4.974,4.9744,4.9747,5.009,5.0095,0,0,0,0,0,0,4.9519,4.9531,4.968,4.9685,4.9563,4.9613,4.962,4.966,4.9689,4.9689,4.9643,4.9635,4.9708,4.9717,4.9728,4.9884,4.9741,4.9748,4.9752,5.0085,5.0091,5.0096,0,0,0,0,0,0,4.9515,4.9533,4.9678,4.9606,4.9623,4.9621,4.9667,4.9664,4.9689,4.9694,4.9693,4.967,4.9705,4.9718,4.9817,4.9885,4.9751,4.9757,5.008,5.0087,5.0094,5.0201,0,0,0,0,0,0,4.951,4.9532,4.9585,4.9608,4.9627,4.9768,4.9671,4.9668,4.9701,4.9691,4.9719,4.9719,4.9702,4.9807,4.9824,4.9892,4.9763,5.0073,5.0083,5.0092,5.0191,5.0211,5.0228,0,0,0,0,0,4.9502,4.9613,4.9588,4.9607,4.9693,4.9772,4.9783,4.9761,4.9707,4.9759,4.9762,4.9718,4.9876,4.9818,4.9837,4.9908,5.0069,5.008,5.0091,5.0183,5.0207,5.0227,0,0,0,0,0,0,4.9598,4.9616,4.9588,4.971,4.974,4.9758,4.9822,4.9788,4.9834,4.9823,4.9795,4.9801,4.9906,4.9918,4.9853,5.0038,4.9963,4.9978,5.0027,5.005,5.0068,5.0061,4.9769,0,0,0,0,0,4.9634,4.9697,4.9709,4.9815,4.9831,4.9825,4.9858,4.9839,4.9869,4.9881,4.9892,4.9922,4.9977,5.0015,5.0067,5.0193,5.0195,5.0251,5.027,5.0285,5.0297,5.036,5.0383,5.0133,5.0133,5.0132,0,0,4.9707,4.9725,4.9767,4.9835,4.9856,4.992,4.9836,4.9909,4.9955,4.9892,4.9985,4.9994,5.0026,5.0138,5.0188,5.015,5.0367,5.0299,5.0311,5.0315,5.0373,5.0397,5.0418,5.014,5.0139,5.0138,0,0,4.9873,4.9895,4.9983,5.0005,5.0038,5.0032,5.0054,5.0076,5.0079,5.0173,5.0125,5.018,5.0278,5.0301,5.0325,5.0497,5.0457,5.0515,5.061,5.0671,5.0691,5.0708,5.0765,5.0786,5.0528,5.0529,5.0529,0,4.996,5.0056,5.0033,5.0107,5.0137,5.0083,5.017,5.0193,5.0241,5.0262,5.022,5.0339,5.0357,5.0471,5.0512,5.0536,5.0556,5.051,5.069,5.0707,5.0723,5.0777,5.0799,5.0535,5.0535,5.0534,5.0533,0,5.0158,5.0226,5.0293,5.0339,5.0377,5.0458,5.0445,5.0486,5.0464,5.0462,5.0555,5.0575,5.0627,5.0654,5.0634,5.0765,5.074,5.0695,5.0618,5.0754,5.0803,5.0824,5.0545,5.0542,5.054,5.0539,0,0,5.0386,5.0417,5.0441,5.046,5.0491,5.0542,5.0619,5.0671,5.0704,5.0739,5.0801,5.0884,5.0841,5.0869,5.0851,5.0905,5.1034,5.0853,5.0853,5.0882,5.1174,5.1205,5.1229,5.1009,5.1013,5.1016,5.117,0,5.0548,5.0681,5.0662,5.079,5.0849,5.0798,5.0864,5.089,5.089,5.0939,5.0939,5.0996,5.0939,5.0954,5.1006,5.1008,5.1092,5.0997,5.1063,5.1066,5.1052,5.1256,5.1289,5.1433,5.119,5.1193,5.1196,0,5.0755,5.0795,5.0929,5.0947,5.0971,5.1032,5.1075,5.1124,5.1151,5.1147,5.1177,5.1147,5.1222,5.1147,5.1247,5.1183,5.1209,5.1214,5.1219,5.1221,5.1136,5.1259,5.1479,5.1499,5.1227,5.1224,5.1222,0,5.0901,5.099,5.108,5.1098,5.1123,5.1166,5.1178,5.12,5.1231,5.1269,5.1288,5.1335,5.136,5.1396,5.1379,5.1326,5.1481,5.1405,5.1477,5.1477,5.1508,5.1506,5.1731,5.1533,5.1533,5.1532,5.1532,0,5.1081,5.1164,5.1145,5.12,5.129,5.1266,5.1355,5.1361,5.1381,5.1435,5.1395,5.1446,5.1422,5.1471,5.1459,5.1541,5.1554,5.1551,5.1546,5.1552,5.1552,5.1566,5.1554,5.1538,5.1537,5.1536,5.1535,0,5.1258,5.125,5.1344,5.1359,5.1365,5.143,5.1442,5.1492,5.1489,5.1557,5.1572,5.1567,5.1622,5.1609,5.1671,5.1662,5.1764,5.1749,5.1755,5.1749,5.1819,5.1811,5.2058,5.2088,5.1875,5.1877,5.1878,0,5.1372,5.1434,5.1455,5.1488,5.1503,5.1558,5.1588,5.1567,5.16,5.1633,5.1679,5.1731,5.177,5.186,5.1861,5.1906,5.1889,5.1972,5.1895,5.1898,5.1884,5.1879,5.1883,5.1986,5.1989,5.1991,5.1993,0,5.1573,5.1565,5.1611,5.1655,5.1692,5.1726,5.1756,5.1785,5.1766,5.1805,5.186,5.1891,5.1952,5.2002,5.2044,5.2054,5.2019,5.2017,5.2035,5.204,5.2039,5.2036,5.1791,5.2011,5.2009,5.2008,5.2007,5.2006,5.1719,5.1769,5.1791,5.1843,5.1863,5.1891,5.1937,5.194,5.1986,5.2033,5.2018,5.208,5.2102,5.2154,5.217,5.2217,5.2185,5.2212,5.2218,5.2224,5.2231,5.2035,5.2225,5.2224,5.2224,5.2223,5.2223,0,5.1913,5.1924,5.1972,5.2014,5.2054,5.2019,5.2049,5.2084,5.2139,5.2163,5.2202,5.2264,5.2312,5.2316,5.2361,5.2397,5.2382,5.2409,5.2404,5.2406,5.2259,5.2237,5.242,5.242,5.242,5.242,5.242,5.242,5.2019,5.2101,5.2096,5.2187,5.2197,5.2257,5.2277,5.2302,5.232,5.239,5.243,5.2432,5.2447,5.2492,5.2533,5.2533,5.2549,5.2582,5.2576,5.2437,5.2417,5.2398,5.2377,5.2587,5.2587,5.2718,5.2719,5.272]},{"header":{"parameterUnit":"m.s-1","parameterCategory":1,"la1":30.2991,"la2":30.254,"lo1":-89.0895,"lo2":-89.0444,"dy":0.0017,"dx":0.0017,"nx":28,"ny":28,"refTime":"2023-08-08T03:00:00:Z","depth":0,"parameterNumber":3,"parameterNumberName":"V-component_of_WINDS"},"data":[0,0,0,0,0,0,0,0,0,0,0,0,0,0,0,0,0,0,0,0,0,0,0,0,0,0,0,0,0,0,0,0,0,0,0,0,0,0,0,0,0,0,0,0,0,0,0,0,0,0,0,0,0,0,0,0,0,0,4.3425,4.3427,0,4.3536,4.3538,4.3539,4.3534,4.3533,4.3531,4.353,4.3638,4.3642,4.3647,0,0,0,0,0,0,0,0,0,0,0,0,0,4.3203,4.3207,4.3425,4.3427,4.3428,4.3536,4.3538,4.3539,4.3534,4.3533,4.3531,4.3529,4.3637,4.3642,4.3647,0,0,0,0,0,0,0,0,0,0,0,0,0,4.3305,4.3208,4.3425,4.3439,4.3441,4.3536,4.3538,4.354,4.3535,4.3533,4.353,4.3528,4.3635,4.3641,4.3648,4.3734,0,0,4.3668,4.367,0,0,0,0,0,0,0,0,4.3299,4.3313,4.3435,4.3438,4.3441,4.3519,4.3499,4.3605,4.3535,4.3499,4.353,4.3527,4.36,4.3609,4.3635,4.3739,4.3744,4.3668,4.3672,4.3675,4.3677,0,0,0,0,0,0,0,4.3292,4.3308,4.3469,4.3437,4.3441,4.3437,4.3449,4.3519,4.3561,4.3502,4.3502,4.3516,4.3601,4.3629,4.3638,4.3745,4.3668,4.3674,4.3678,4.368,4.3923,4.3925,0,0,0,0,0,0,4.3283,4.3302,4.3466,4.3472,4.3363,4.3443,4.3457,4.3496,4.356,4.3568,4.3517,4.3515,4.3619,4.363,4.3641,4.3745,4.3675,4.3681,4.3685,4.392,4.3923,4.3926,0,0,0,0,0,0,4.3278,4.3298,4.3461,4.3388,4.3408,4.345,4.3494,4.35,4.3528,4.3572,4.3579,4.3539,4.3617,4.3632,4.3711,4.3748,4.3684,4.369,4.3917,4.3921,4.3925,4.3954,0,0,0,0,0,0,4.3272,4.3296,4.3331,4.3388,4.3412,4.3531,4.3497,4.3504,4.3539,4.3537,4.3594,4.3601,4.3617,4.3701,4.3717,4.3756,4.3695,4.3914,4.3919,4.3924,4.3949,4.3958,4.3965,0,0,0,0,0,4.3264,4.3334,4.3333,4.3352,4.3457,4.3533,4.3546,4.3565,4.3543,4.3577,4.3605,4.3599,4.3742,4.3709,4.3727,4.3769,4.3912,4.3918,4.3923,4.3946,4.3956,4.3965,0,0,0,0,0,0,4.3278,4.3342,4.3341,4.3432,4.3478,4.3532,4.3576,4.3576,4.3627,4.3623,4.3642,4.3655,4.3733,4.3759,4.3721,4.3854,4.3824,4.3833,4.3835,4.3845,4.3853,4.3844,4.37,0,0,0,0,0,4.3293,4.3351,4.3402,4.3478,4.3501,4.3534,4.3568,4.3579,4.3626,4.3644,4.3678,4.3722,4.3777,4.3812,4.3865,4.3953,4.3964,4.399,4.3998,4.4005,4.4012,4.4058,4.4069,4.3945,4.3945,4.3945,0,0,4.3322,4.3363,4.3399,4.3482,4.3518,4.3575,4.3551,4.3613,4.3655,4.3653,4.3729,4.3756,4.3806,4.3889,4.3927,4.3913,4.4049,4.4012,4.4017,4.4021,4.4065,4.4077,4.4087,4.3949,4.3948,4.3948,0,0,4.3404,4.3443,4.3509,4.3545,4.3601,4.3623,4.3638,4.3693,4.3711,4.3788,4.3787,4.3836,4.3931,4.3966,4.3996,4.409,4.4085,4.4106,4.4147,4.4191,4.4201,4.421,4.4241,4.4252,4.4114,4.4114,4.4114,0,4.3433,4.3522,4.3542,4.3605,4.364,4.3642,4.3707,4.3741,4.3811,4.3834,4.3817,4.3935,4.3969,4.4059,4.4081,4.4107,4.4123,4.41,4.4198,4.4207,4.4216,4.4246,4.4257,4.4116,4.4116,4.4116,4.4116,0,4.3553,4.3614,4.366,4.3728,4.3769,4.3832,4.386,4.3898,4.3905,4.3927,4.4004,4.4045,4.4105,4.4128,4.4135,4.4218,4.4207,4.4195,4.4164,4.4229,4.4257,4.4269,4.4119,4.4119,4.4118,4.4117,0,0,4.3647,4.3725,4.3742,4.3772,4.3832,4.3879,4.3941,4.4002,4.4033,4.408,4.4131,4.421,4.4198,4.4233,4.4243,4.4282,4.4351,4.4264,4.4266,4.4277,4.4442,4.445,4.4463,4.4348,4.4351,4.4353,4.4437,0,4.3734,4.3847,4.3867,4.3965,4.402,4.4022,4.4076,4.4117,4.414,4.4188,4.4212,4.4267,4.4249,4.4269,4.4308,4.4334,4.4384,4.4329,4.4394,4.4396,4.438,4.4479,4.4488,4.4566,4.4449,4.4451,4.4452,0,4.3851,4.3902,4.4006,4.4057,4.4081,4.413,4.4185,4.4232,4.4278,4.4292,4.433,4.4335,4.4397,4.4365,4.4449,4.4411,4.4438,4.4455,4.4458,4.4464,4.4427,4.4485,4.4591,4.4602,4.447,4.4469,4.4467,0,4.3907,4.4002,4.4075,4.4101,4.4163,4.4197,4.4224,4.4268,4.4302,4.435,4.4372,4.4426,4.4455,4.4496,4.4515,4.449,4.4597,4.4566,4.4607,4.4607,4.4629,4.4627,4.4739,4.465,4.4649,4.4649,4.4649,0,4.4001,4.4064,4.4101,4.4146,4.4215,4.4236,4.4303,4.4329,4.4368,4.4417,4.4421,4.4466,4.4489,4.4537,4.4552,4.4618,4.4631,4.4642,4.4645,4.4641,4.4639,4.4658,4.4652,4.4652,4.4652,4.4651,4.465,0,4.4075,4.4103,4.4183,4.4235,4.425,4.4298,4.4342,4.4384,4.4406,4.4467,4.4482,4.4516,4.4572,4.4596,4.4664,4.4674,4.4749,4.4749,4.4734,4.4734,4.4773,4.4768,4.49,4.4918,4.4818,4.4819,4.482,0,4.4132,4.418,4.4238,4.4271,4.43,4.4354,4.4389,4.441,4.4446,4.4501,4.4536,4.4593,4.4639,4.4727,4.4757,4.4808,4.4808,4.4851,4.4816,4.4809,4.4806,4.4802,4.4806,4.4856,4.4858,4.4858,4.4859,0,4.423,4.4241,4.4293,4.4348,4.439,4.4435,4.4478,4.4504,4.4532,4.4572,4.463,4.4665,4.4735,4.479,4.4843,4.4869,4.4867,4.487,4.4882,4.4877,4.4866,4.487,4.4749,4.4867,4.4866,4.4865,4.4865,4.4865,4.4296,4.4338,4.4385,4.4441,4.4476,4.4516,4.4558,4.4586,4.4635,4.4694,4.4703,4.4765,4.4807,4.4879,4.4906,4.4953,4.4941,4.4959,4.4963,4.4967,4.4968,4.486,4.4962,4.4962,4.4962,4.4962,4.4962,0,4.4392,4.4422,4.4474,4.4535,4.4578,4.4576,4.4623,4.4659,4.4713,4.4754,4.4799,4.4864,4.4917,4.495,4.5003,4.5034,4.5034,4.5046,4.5043,4.5049,4.4976,4.496,4.5045,4.5045,4.5045,4.5045,4.5045,4.5045,4.4448,4.4518,4.4534,4.4621,4.465,4.4711,4.4738,4.4774,4.4807,4.488,4.4924,4.4946,4.4983,4.5038,4.5086,4.5094,4.5112,4.5125,4.5132,4.5063,4.5054,4.5046,4.503,4.5129,4.5129,4.52,4.5201,4.5201]}]]